Year,Month,Day,Hour,Minute,Value (Times are PST for temperature in C)
2007,05,22,00,00,8.70
2007,05,22,00,01,8.70
2007,05,22,00,02,8.70
2007,05,22,00,03,8.70
2007,05,22,00,04,8.70
2007,05,22,00,05,8.70
2007,05,22,00,06,8.70
2007,05,22,00,07,8.80
2007,05,22,00,08,8.80
2007,05,22,00,09,8.80
2007,05,22,00,10,8.80
2007,05,22,00,11,8.80
2007,05,22,00,12,8.80
2007,05,22,00,13,8.80
2007,05,22,00,14,8.90
2007,05,22,00,15,8.90
2007,05,22,00,16,8.90
2007,05,22,00,17,8.90
2007,05,22,00,18,8.90
2007,05,22,00,19,8.90
2007,05,22,00,20,8.90
2007,05,22,00,21,8.90
2007,05,22,00,22,8.80
2007,05,22,00,23,8.80
2007,05,22,00,24,8.80
2007,05,22,00,25,8.80
2007,05,22,00,26,8.80
2007,05,22,00,27,8.80
2007,05,22,00,28,8.80
2007,05,22,00,29,8.80
2007,05,22,00,30,8.80
2007,05,22,00,31,8.70
2007,05,22,00,32,8.70
2007,05,22,00,33,8.70
2007,05,22,00,34,8.70
2007,05,22,00,35,8.70
2007,05,22,00,36,8.70
2007,05,22,00,37,8.70
2007,05,22,00,38,8.70
2007,05,22,00,39,8.70
2007,05,22,00,40,8.70
2007,05,22,00,41,8.70
2007,05,22,00,42,8.70
2007,05,22,00,43,8.70
2007,05,22,00,44,8.70
2007,05,22,00,45,8.70
2007,05,22,00,46,8.70
2007,05,22,00,47,8.60
2007,05,22,00,48,8.60
2007,05,22,00,49,8.60
2007,05,22,00,50,8.60
2007,05,22,00,51,8.60
2007,05,22,00,52,8.60
2007,05,22,00,53,8.60
2007,05,22,00,54,8.60
2007,05,22,00,55,8.60
2007,05,22,00,56,8.60
2007,05,22,00,57,8.60
2007,05,22,00,58,8.60
2007,05,22,00,59,8.60
2007,05,22,01,00,8.60
2007,05,22,01,01,8.60
2007,05,22,01,02,8.60
2007,05,22,01,03,8.60
2007,05,22,01,04,8.60
2007,05,22,01,05,8.60
2007,05,22,01,06,8.60
2007,05,22,01,07,8.60
2007,05,22,01,08,8.60
2007,05,22,01,09,8.60
2007,05,22,01,10,8.60
2007,05,22,01,11,8.50
2007,05,22,01,12,8.50
2007,05,22,01,13,8.50
2007,05,22,01,14,8.40
2007,05,22,01,15,8.40
2007,05,22,01,16,8.40
2007,05,22,01,17,8.40
2007,05,22,01,18,8.30
2007,05,22,01,19,8.30
2007,05,22,01,20,8.30
2007,05,22,01,21,8.20
2007,05,22,01,22,8.20
2007,05,22,01,23,8.20
2007,05,22,01,24,8.20
2007,05,22,01,25,8.20
2007,05,22,01,26,8.10
2007,05,22,01,27,8.10
2007,05,22,01,28,8.10
2007,05,22,01,29,8.10
2007,05,22,01,30,8.10
2007,05,22,01,31,8.10
2007,05,22,01,32,8.10
2007,05,22,01,33,8.10
2007,05,22,01,34,8.10
2007,05,22,01,35,8.20
2007,05,22,01,36,8.20
2007,05,22,01,37,8.20
2007,05,22,01,38,8.20
2007,05,22,01,39,8.30
2007,05,22,01,40,8.30
2007,05,22,01,41,8.30
2007,05,22,01,42,8.30
2007,05,22,01,43,8.30
2007,05,22,01,44,8.30
2007,05,22,01,45,8.30
2007,05,22,01,46,8.30
2007,05,22,01,47,8.20
2007,05,22,01,48,8.20
2007,05,22,01,49,8.20
2007,05,22,01,50,8.20
2007,05,22,01,51,8.20
2007,05,22,01,52,8.20
2007,05,22,01,53,8.20
2007,05,22,01,54,8.20
2007,05,22,01,55,8.20
2007,05,22,01,56,8.20
2007,05,22,01,57,8.20
2007,05,22,01,58,8.20
2007,05,22,01,59,8.20
2007,05,22,02,00,8.20
2007,05,22,02,01,8.10
2007,05,22,02,02,8.10
2007,05,22,02,03,8.10
2007,05,22,02,04,8.10
2007,05,22,02,05,8.10
2007,05,22,02,06,8.10
2007,05,22,02,07,8.10
2007,05,22,02,08,8.20
2007,05,22,02,09,8.20
2007,05,22,02,10,8.20
2007,05,22,02,11,8.20
2007,05,22,02,12,8.20
2007,05,22,02,13,8.30
2007,05,22,02,14,8.30
2007,05,22,02,15,8.30
2007,05,22,02,16,8.40
2007,05,22,02,17,8.40
2007,05,22,02,18,8.40
2007,05,22,02,19,8.50
2007,05,22,02,20,8.50
2007,05,22,02,21,8.60
2007,05,22,02,22,8.60
2007,05,22,02,23,8.60
2007,05,22,02,24,8.60
2007,05,22,02,25,8.60
2007,05,22,02,26,8.60
2007,05,22,02,27,8.70
2007,05,22,02,28,8.70
2007,05,22,02,29,8.70
2007,05,22,02,30,8.60
2007,05,22,02,31,8.60
2007,05,22,02,32,8.60
2007,05,22,02,33,8.60
2007,05,22,02,34,8.60
2007,05,22,02,35,8.60
2007,05,22,02,36,8.60
2007,05,22,02,37,8.50
2007,05,22,02,38,8.50
2007,05,22,02,39,8.50
2007,05,22,02,40,8.50
2007,05,22,02,41,8.50
2007,05,22,02,42,8.50
2007,05,22,02,43,8.40
2007,05,22,02,44,8.30
2007,05,22,02,45,8.30
2007,05,22,02,46,8.30
2007,05,22,02,47,8.30
2007,05,22,02,48,8.30
2007,05,22,02,49,8.20
2007,05,22,02,50,8.20
2007,05,22,02,51,8.20
2007,05,22,02,52,8.20
2007,05,22,02,53,8.10
2007,05,22,02,54,8.10
2007,05,22,02,55,8.10
2007,05,22,02,56,8.10
2007,05,22,02,57,8.10
2007,05,22,02,58,8.10
2007,05,22,02,59,8.10
2007,05,22,03,00,8.10
2007,05,22,03,01,8.10
2007,05,22,03,02,8.10
2007,05,22,03,03,8.00
2007,05,22,03,04,8.00
2007,05,22,03,05,8.00
2007,05,22,03,06,7.90
2007,05,22,03,07,7.90
2007,05,22,03,08,7.90
2007,05,22,03,09,7.90
2007,05,22,03,10,7.90
2007,05,22,03,11,7.90
2007,05,22,03,12,7.90
2007,05,22,03,13,7.90
2007,05,22,03,14,7.90
2007,05,22,03,15,8.00
2007,05,22,03,16,8.00
2007,05,22,03,17,8.10
2007,05,22,03,18,8.20
2007,05,22,03,19,8.20
2007,05,22,03,20,8.30
2007,05,22,03,21,8.30
2007,05,22,03,22,8.40
2007,05,22,03,23,8.40
2007,05,22,03,24,8.50
2007,05,22,03,25,8.60
2007,05,22,03,26,8.70
2007,05,22,03,27,8.70
2007,05,22,03,28,8.80
2007,05,22,03,29,8.80
2007,05,22,03,30,8.80
2007,05,22,03,31,8.80
2007,05,22,03,32,8.90
2007,05,22,03,33,8.90
2007,05,22,03,34,8.90
2007,05,22,03,35,8.90
2007,05,22,03,36,8.90
2007,05,22,03,37,8.90
2007,05,22,03,38,8.90
2007,05,22,03,39,8.90
2007,05,22,03,40,8.90
2007,05,22,03,41,8.90
2007,05,22,03,42,8.90
2007,05,22,03,43,8.90
2007,05,22,03,44,8.90
2007,05,22,03,45,8.90
2007,05,22,03,46,8.90
2007,05,22,03,47,8.90
2007,05,22,03,48,8.90
2007,05,22,03,49,8.90
2007,05,22,03,50,9.00
2007,05,22,03,51,9.00
2007,05,22,03,52,9.00
2007,05,22,03,53,9.00
2007,05,22,03,54,9.00
2007,05,22,03,55,9.00
2007,05,22,03,56,9.00
2007,05,22,03,57,8.90
2007,05,22,03,58,8.90
2007,05,22,03,59,9.00
2007,05,22,04,00,9.00
2007,05,22,04,01,9.00
2007,05,22,04,02,9.00
2007,05,22,04,03,9.00
2007,05,22,04,04,9.00
2007,05,22,04,05,9.10
2007,05,22,04,06,9.10
2007,05,22,04,07,9.10
2007,05,22,04,08,9.10
2007,05,22,04,09,9.10
2007,05,22,04,10,9.10
2007,05,22,04,11,9.10
2007,05,22,04,12,9.10
2007,05,22,04,13,9.10
2007,05,22,04,14,9.20
2007,05,22,04,15,9.20
2007,05,22,04,16,9.20
2007,05,22,04,17,9.20
2007,05,22,04,18,9.20
2007,05,22,04,19,9.20
2007,05,22,04,20,9.20
2007,05,22,04,21,9.20
2007,05,22,04,22,9.30
2007,05,22,04,23,9.30
2007,05,22,04,24,9.20
2007,05,22,04,25,9.20
2007,05,22,04,26,9.20
2007,05,22,04,27,9.20
2007,05,22,04,28,9.20
2007,05,22,04,29,9.20
2007,05,22,04,30,9.20
2007,05,22,04,31,9.30
2007,05,22,04,32,9.30
2007,05,22,04,33,9.30
2007,05,22,04,34,9.30
2007,05,22,04,35,9.30
2007,05,22,04,36,9.30
2007,05,22,04,37,9.30
2007,05,22,04,38,9.30
2007,05,22,04,39,9.30
2007,05,22,04,40,9.20
2007,05,22,04,41,9.20
2007,05,22,04,42,9.20
2007,05,22,04,43,9.20
2007,05,22,04,44,9.20
2007,05,22,04,45,9.20
2007,05,22,04,46,9.20
2007,05,22,04,47,9.20
2007,05,22,04,48,9.10
2007,05,22,04,49,9.10
2007,05,22,04,50,9.10
2007,05,22,04,51,9.10
2007,05,22,04,52,9.10
2007,05,22,04,53,9.10
2007,05,22,04,54,9.10
2007,05,22,04,55,9.10
2007,05,22,04,56,9.10
2007,05,22,04,57,9.20
2007,05,22,04,58,9.20
2007,05,22,04,59,9.10
2007,05,22,05,00,9.10
2007,05,22,05,01,9.10
2007,05,22,05,02,9.10
2007,05,22,05,03,9.10
2007,05,22,05,04,9.10
2007,05,22,05,05,9.10
2007,05,22,05,06,9.10
2007,05,22,05,07,9.10
2007,05,22,05,08,9.10
2007,05,22,05,09,9.10
2007,05,22,05,10,9.10
2007,05,22,05,11,9.10
2007,05,22,05,12,9.10
2007,05,22,05,13,9.10
2007,05,22,05,14,9.10
2007,05,22,05,15,9.10
2007,05,22,05,16,9.10
2007,05,22,05,17,9.10
2007,05,22,05,18,9.10
2007,05,22,05,19,9.10
2007,05,22,05,20,9.10
2007,05,22,05,21,9.10
2007,05,22,05,22,9.20
2007,05,22,05,23,9.20
2007,05,22,05,24,9.20
2007,05,22,05,25,9.20
2007,05,22,05,26,9.20
2007,05,22,05,27,9.20
2007,05,22,05,28,9.20
2007,05,22,05,29,9.20
2007,05,22,05,30,9.20
2007,05,22,05,31,9.20
2007,05,22,05,32,9.20
2007,05,22,05,33,9.20
2007,05,22,05,34,9.30
2007,05,22,05,35,9.30
2007,05,22,05,36,9.30
2007,05,22,05,37,9.30
2007,05,22,05,38,9.30
2007,05,22,05,39,9.30
2007,05,22,05,40,9.30
2007,05,22,05,41,9.30
2007,05,22,05,42,9.30
2007,05,22,05,43,9.30
2007,05,22,05,44,9.30
2007,05,22,05,45,9.30
2007,05,22,05,46,9.30
2007,05,22,05,47,9.30
2007,05,22,05,48,9.40
2007,05,22,05,49,9.40
2007,05,22,05,50,9.40
2007,05,22,05,51,9.40
2007,05,22,05,52,9.40
2007,05,22,05,53,9.40
2007,05,22,05,54,9.40
2007,05,22,05,55,9.40
2007,05,22,05,56,9.50
2007,05,22,05,57,9.50
2007,05,22,05,58,9.50
2007,05,22,05,59,9.60
2007,05,22,06,00,9.60
2007,05,22,06,01,9.60
2007,05,22,06,02,9.60
2007,05,22,06,03,9.60
2007,05,22,06,04,9.60
2007,05,22,06,05,9.60
2007,05,22,06,06,9.60
2007,05,22,06,07,9.60
2007,05,22,06,08,9.60
2007,05,22,06,09,9.60
2007,05,22,06,10,9.60
2007,05,22,06,11,9.60
2007,05,22,06,12,9.70
2007,05,22,06,13,9.70
2007,05,22,06,14,9.70
2007,05,22,06,15,9.70
2007,05,22,06,16,9.70
2007,05,22,06,17,9.70
2007,05,22,06,18,9.70
2007,05,22,06,19,9.70
2007,05,22,06,20,9.70
2007,05,22,06,21,9.70
2007,05,22,06,22,9.70
2007,05,22,06,23,9.80
2007,05,22,06,24,9.80
2007,05,22,06,25,9.80
2007,05,22,06,26,9.80
2007,05,22,06,27,9.80
2007,05,22,06,28,9.80
2007,05,22,06,29,9.80
2007,05,22,06,30,9.80
2007,05,22,06,31,9.80
2007,05,22,06,32,9.80
2007,05,22,06,33,9.80
2007,05,22,06,34,9.80
2007,05,22,06,35,9.80
2007,05,22,06,36,9.80
2007,05,22,06,37,9.80
2007,05,22,06,38,9.80
2007,05,22,06,39,9.80
2007,05,22,06,40,9.80
2007,05,22,06,41,9.80
2007,05,22,06,42,9.80
2007,05,22,06,43,9.80
2007,05,22,06,44,9.80
2007,05,22,06,45,9.80
2007,05,22,06,46,9.80
2007,05,22,06,47,9.80
2007,05,22,06,48,9.80
2007,05,22,06,49,9.80
2007,05,22,06,50,9.80
2007,05,22,06,51,9.80
2007,05,22,06,52,9.80
2007,05,22,06,53,9.80
2007,05,22,06,54,9.80
2007,05,22,06,55,9.80
2007,05,22,06,56,9.80
2007,05,22,06,57,9.80
2007,05,22,06,58,9.70
2007,05,22,06,59,9.70
2007,05,22,07,00,9.70
2007,05,22,07,01,9.70
2007,05,22,07,02,9.70
2007,05,22,07,03,9.70
2007,05,22,07,04,9.70
2007,05,22,07,05,9.70
2007,05,22,07,06,9.70
2007,05,22,07,07,9.70
2007,05,22,07,08,9.80
2007,05,22,07,09,9.80
2007,05,22,07,10,9.80
2007,05,22,07,11,9.80
2007,05,22,07,12,9.90
2007,05,22,07,13,9.90
2007,05,22,07,14,9.90
2007,05,22,07,15,10.00
2007,05,22,07,16,10.00
2007,05,22,07,17,10.10
2007,05,22,07,18,10.10
2007,05,22,07,19,10.10
2007,05,22,07,20,10.10
2007,05,22,07,21,10.20
2007,05,22,07,22,10.20
2007,05,22,07,23,10.20
2007,05,22,07,24,10.20
2007,05,22,07,25,10.20
2007,05,22,07,26,10.30
2007,05,22,07,27,10.30
2007,05,22,07,28,10.30
2007,05,22,07,29,10.30
2007,05,22,07,30,10.40
2007,05,22,07,31,10.40
2007,05,22,07,32,10.50
2007,05,22,07,33,10.50
2007,05,22,07,34,10.50
2007,05,22,07,35,10.50
2007,05,22,07,36,10.50
2007,05,22,07,37,10.60
2007,05,22,07,38,10.70
2007,05,22,07,39,10.80
2007,05,22,07,40,10.80
2007,05,22,07,41,10.90
2007,05,22,07,42,11.00
2007,05,22,07,43,11.10
2007,05,22,07,44,11.20
2007,05,22,07,45,11.30
2007,05,22,07,46,11.30
2007,05,22,07,47,11.20
2007,05,22,07,48,11.20
2007,05,22,07,49,11.20
2007,05,22,07,50,11.20
2007,05,22,07,51,11.20
2007,05,22,07,52,11.20
2007,05,22,07,53,11.20
2007,05,22,07,54,11.20
2007,05,22,07,55,11.10
2007,05,22,07,56,11.10
2007,05,22,07,57,11.00
2007,05,22,07,58,10.90
2007,05,22,07,59,10.90
2007,05,22,08,00,10.90
2007,05,22,08,01,10.90
2007,05,22,08,02,11.00
2007,05,22,08,03,11.10
2007,05,22,08,04,11.10
2007,05,22,08,05,11.20
2007,05,22,08,06,11.20
2007,05,22,08,07,11.20
2007,05,22,08,08,11.20
2007,05,22,08,09,11.20
2007,05,22,08,10,11.10
2007,05,22,08,11,11.10
2007,05,22,08,12,11.10
2007,05,22,08,13,11.10
2007,05,22,08,14,11.20
2007,05,22,08,15,11.20
2007,05,22,08,16,11.20
2007,05,22,08,17,11.20
2007,05,22,08,18,11.20
2007,05,22,08,19,11.30
2007,05,22,08,20,11.30
2007,05,22,08,21,11.30
2007,05,22,08,22,11.30
2007,05,22,08,23,11.30
2007,05,22,08,24,11.40
2007,05,22,08,25,11.50
2007,05,22,08,26,11.60
2007,05,22,08,27,11.60
2007,05,22,08,28,11.60
2007,05,22,08,29,11.60
2007,05,22,08,30,11.50
2007,05,22,08,31,11.40
2007,05,22,08,32,11.40
2007,05,22,08,33,11.40
2007,05,22,08,34,11.40
2007,05,22,08,35,11.40
2007,05,22,08,36,11.30
2007,05,22,08,37,11.40
2007,05,22,08,38,11.40
2007,05,22,08,39,11.40
2007,05,22,08,40,11.40
2007,05,22,08,41,11.40
2007,05,22,08,42,11.40
2007,05,22,08,43,11.40
2007,05,22,08,44,11.40
2007,05,22,08,45,11.50
2007,05,22,08,46,11.60
2007,05,22,08,47,11.60
2007,05,22,08,48,11.60
2007,05,22,08,49,11.60
2007,05,22,08,50,11.70
2007,05,22,08,51,11.60
2007,05,22,08,52,11.60
2007,05,22,08,53,11.60
2007,05,22,08,54,11.60
2007,05,22,08,55,11.60
2007,05,22,08,56,11.60
2007,05,22,08,57,11.60
2007,05,22,08,58,11.50
2007,05,22,08,59,11.50
2007,05,22,09,00,11.50
2007,05,22,09,01,11.40
2007,05,22,09,02,11.30
2007,05,22,09,03,11.20
2007,05,22,09,04,11.10
2007,05,22,09,05,11.00
2007,05,22,09,06,11.10
2007,05,22,09,07,11.10
2007,05,22,09,08,11.20
2007,05,22,09,09,11.20
2007,05,22,09,10,11.20
2007,05,22,09,11,11.20
2007,05,22,09,12,11.20
2007,05,22,09,13,11.30
2007,05,22,09,14,11.30
2007,05,22,09,15,11.30
2007,05,22,09,16,11.30
2007,05,22,09,17,11.20
2007,05,22,09,18,11.20
2007,05,22,09,19,11.20
2007,05,22,09,20,11.20
2007,05,22,09,21,11.20
2007,05,22,09,22,11.40
2007,05,22,09,23,11.50
2007,05,22,09,24,11.60
2007,05,22,09,25,11.50
2007,05,22,09,26,11.50
2007,05,22,09,27,11.60
2007,05,22,09,28,11.60
2007,05,22,09,29,11.70
2007,05,22,09,30,11.70
2007,05,22,09,31,11.70
2007,05,22,09,32,11.80
2007,05,22,09,33,11.80
2007,05,22,09,34,11.70
2007,05,22,09,35,11.80
2007,05,22,09,36,11.80
2007,05,22,09,37,11.80
2007,05,22,09,38,11.80
2007,05,22,09,39,11.90
2007,05,22,09,40,12.00
2007,05,22,09,41,12.10
2007,05,22,09,42,12.10
2007,05,22,09,43,12.10
2007,05,22,09,44,12.10
2007,05,22,09,45,12.00
2007,05,22,09,46,12.00
2007,05,22,09,47,12.00
2007,05,22,09,48,12.10
2007,05,22,09,49,12.10
2007,05,22,09,50,12.20
2007,05,22,09,51,12.30
2007,05,22,09,52,12.40
2007,05,22,09,53,12.50
2007,05,22,09,54,12.60
2007,05,22,09,55,12.60
2007,05,22,09,56,12.60
2007,05,22,09,57,12.70
2007,05,22,09,58,12.60
2007,05,22,09,59,12.60
2007,05,22,10,00,12.60
2007,05,22,10,01,12.50
2007,05,22,10,02,12.30
2007,05,22,10,03,12.10
2007,05,22,10,04,12.10
2007,05,22,10,05,12.10
2007,05,22,10,06,12.10
2007,05,22,10,07,12.10
2007,05,22,10,08,12.20
2007,05,22,10,09,12.20
2007,05,22,10,10,12.20
2007,05,22,10,11,12.20
2007,05,22,10,12,12.20
2007,05,22,10,13,12.30
2007,05,22,10,14,12.30
2007,05,22,10,15,12.20
2007,05,22,10,16,12.30
2007,05,22,10,17,12.30
2007,05,22,10,18,12.40
2007,05,22,10,19,12.40
2007,05,22,10,20,12.30
2007,05,22,10,21,12.30
2007,05,22,10,22,12.30
2007,05,22,10,23,12.40
2007,05,22,10,24,12.50
2007,05,22,10,25,12.60
2007,05,22,10,26,12.70
2007,05,22,10,27,12.80
2007,05,22,10,28,13.00
2007,05,22,10,29,13.00
2007,05,22,10,30,13.10
2007,05,22,10,31,13.00
2007,05,22,10,32,13.00
2007,05,22,10,33,13.10
2007,05,22,10,34,13.10
2007,05,22,10,35,13.00
2007,05,22,10,36,13.10
2007,05,22,10,37,13.10
2007,05,22,10,38,13.10
2007,05,22,10,39,13.10
2007,05,22,10,40,13.10
2007,05,22,10,41,13.10
2007,05,22,10,42,13.20
2007,05,22,10,43,13.20
2007,05,22,10,44,13.00
2007,05,22,10,45,12.90
2007,05,22,10,46,12.80
2007,05,22,10,47,12.90
2007,05,22,10,48,12.90
2007,05,22,10,49,13.00
2007,05,22,10,50,13.10
2007,05,22,10,51,13.20
2007,05,22,10,52,13.00
2007,05,22,10,53,12.90
2007,05,22,10,54,12.90
2007,05,22,10,55,12.80
2007,05,22,10,56,12.90
2007,05,22,10,57,12.90
2007,05,22,10,58,12.90
2007,05,22,10,59,12.90
2007,05,22,11,00,12.80
2007,05,22,11,01,12.80
2007,05,22,11,02,12.80
2007,05,22,11,03,12.80
2007,05,22,11,04,12.80
2007,05,22,11,05,12.80
2007,05,22,11,06,13.00
2007,05,22,11,07,13.10
2007,05,22,11,08,13.20
2007,05,22,11,09,13.20
2007,05,22,11,10,13.10
2007,05,22,11,11,13.00
2007,05,22,11,12,13.00
2007,05,22,11,13,13.10
2007,05,22,11,14,13.10
2007,05,22,11,15,13.10
2007,05,22,11,16,13.10
2007,05,22,11,17,13.10
2007,05,22,11,18,13.10
2007,05,22,11,19,13.10
2007,05,22,11,20,13.10
2007,05,22,11,21,13.00
2007,05,22,11,22,13.00
2007,05,22,11,23,12.90
2007,05,22,11,24,12.90
2007,05,22,11,25,12.90
2007,05,22,11,26,12.90
2007,05,22,11,27,12.90
2007,05,22,11,28,12.90
2007,05,22,11,29,12.90
2007,05,22,11,30,13.00
2007,05,22,11,31,13.10
2007,05,22,11,32,13.20
2007,05,22,11,33,13.20
2007,05,22,11,34,13.20
2007,05,22,11,35,13.20
2007,05,22,11,36,13.30
2007,05,22,11,37,13.30
2007,05,22,11,38,13.30
2007,05,22,11,39,13.20
2007,05,22,11,40,13.20
2007,05,22,11,41,13.10
2007,05,22,11,42,13.10
2007,05,22,11,43,13.20
2007,05,22,11,44,13.20
2007,05,22,11,45,13.30
2007,05,22,11,46,13.30
2007,05,22,11,47,13.40
2007,05,22,11,48,13.50
2007,05,22,11,49,13.60
2007,05,22,11,50,13.50
2007,05,22,11,51,13.50
2007,05,22,11,52,13.60
2007,05,22,11,53,13.60
2007,05,22,11,54,13.60
2007,05,22,11,55,13.70
2007,05,22,11,56,13.70
2007,05,22,11,57,13.70
2007,05,22,11,58,13.60
2007,05,22,11,59,13.60
2007,05,22,12,00,13.60
2007,05,22,12,01,13.60
2007,05,22,12,02,13.40
2007,05,22,12,03,13.30
2007,05,22,12,04,13.30
2007,05,22,12,05,13.30
2007,05,22,12,06,13.30
2007,05,22,12,07,13.30
2007,05,22,12,08,13.40
2007,05,22,12,09,13.40
2007,05,22,12,10,13.40
2007,05,22,12,11,13.50
2007,05,22,12,12,13.50
2007,05,22,12,13,13.50
2007,05,22,12,14,13.50
2007,05,22,12,15,13.60
2007,05,22,12,16,13.70
2007,05,22,12,17,13.70
2007,05,22,12,18,13.70
2007,05,22,12,19,13.70
2007,05,22,12,20,13.70
2007,05,22,12,21,13.70
2007,05,22,12,22,13.70
2007,05,22,12,23,13.70
2007,05,22,12,24,13.80
2007,05,22,12,25,13.80
2007,05,22,12,26,13.80
2007,05,22,12,27,13.80
2007,05,22,12,28,13.80
2007,05,22,12,29,13.80
2007,05,22,12,30,13.80
2007,05,22,12,31,13.80
2007,05,22,12,32,13.80
2007,05,22,12,33,13.90
2007,05,22,12,34,13.90
2007,05,22,12,35,13.90
2007,05,22,12,36,14.00
2007,05,22,12,37,14.10
2007,05,22,12,38,14.10
2007,05,22,12,39,14.20
2007,05,22,12,40,14.20
2007,05,22,12,41,14.20
2007,05,22,12,42,14.30
2007,05,22,12,43,14.30
2007,05,22,12,44,14.30
2007,05,22,12,45,14.30
2007,05,22,12,46,14.30
2007,05,22,12,47,14.30
2007,05,22,12,48,14.30
2007,05,22,12,49,14.30
2007,05,22,12,50,14.40
2007,05,22,12,51,14.40
2007,05,22,12,52,14.40
2007,05,22,12,53,14.40
2007,05,22,12,54,14.40
2007,05,22,12,55,14.30
2007,05,22,12,56,14.20
2007,05,22,12,57,14.20
2007,05,22,12,58,14.20
2007,05,22,12,59,14.20
2007,05,22,13,00,14.30
2007,05,22,13,01,14.40
2007,05,22,13,02,14.40
2007,05,22,13,03,14.40
2007,05,22,13,04,14.50
2007,05,22,13,05,14.60
2007,05,22,13,06,14.70
2007,05,22,13,07,14.70
2007,05,22,13,08,14.70
2007,05,22,13,09,14.70
2007,05,22,13,10,14.60
2007,05,22,13,11,14.60
2007,05,22,13,12,14.70
2007,05,22,13,13,14.80
2007,05,22,13,14,14.90
2007,05,22,13,15,14.90
2007,05,22,13,16,15.00
2007,05,22,13,17,15.00
2007,05,22,13,18,15.00
2007,05,22,13,19,15.10
2007,05,22,13,20,15.20
2007,05,22,13,21,15.20
2007,05,22,13,22,15.10
2007,05,22,13,23,15.00
2007,05,22,13,24,15.00
2007,05,22,13,25,15.00
2007,05,22,13,26,15.20
2007,05,22,13,27,15.40
2007,05,22,13,28,15.40
2007,05,22,13,29,15.50
2007,05,22,13,30,15.50
2007,05,22,13,31,15.60
2007,05,22,13,32,15.60
2007,05,22,13,33,15.70
2007,05,22,13,34,15.70
2007,05,22,13,35,15.70
2007,05,22,13,36,15.70
2007,05,22,13,37,15.70
2007,05,22,13,38,15.60
2007,05,22,13,39,15.50
2007,05,22,13,40,15.50
2007,05,22,13,41,15.60
2007,05,22,13,42,15.50
2007,05,22,13,43,15.50
2007,05,22,13,44,15.50
2007,05,22,13,45,15.40
2007,05,22,13,46,15.50
2007,05,22,13,47,15.50
2007,05,22,13,48,15.60
2007,05,22,13,49,15.60
2007,05,22,13,50,15.60
2007,05,22,13,51,15.60
2007,05,22,13,52,15.60
2007,05,22,13,53,15.60
2007,05,22,13,54,15.60
2007,05,22,13,55,15.60
2007,05,22,13,56,15.70
2007,05,22,13,57,15.80
2007,05,22,13,58,15.90
2007,05,22,13,59,16.10
2007,05,22,14,00,16.20
2007,05,22,14,01,16.30
2007,05,22,14,02,16.30
2007,05,22,14,03,16.30
2007,05,22,14,04,16.30
2007,05,22,14,05,16.20
2007,05,22,14,06,16.30
2007,05,22,14,07,16.20
2007,05,22,14,08,16.30
2007,05,22,14,09,16.30
2007,05,22,14,10,16.20
2007,05,22,14,11,16.20
2007,05,22,14,12,16.30
2007,05,22,14,13,16.30
2007,05,22,14,14,16.40
2007,05,22,14,15,16.40
2007,05,22,14,16,16.50
2007,05,22,14,17,16.50
2007,05,22,14,18,16.40
2007,05,22,14,19,16.30
2007,05,22,14,20,16.30
2007,05,22,14,21,16.20
2007,05,22,14,22,16.10
2007,05,22,14,23,16.00
2007,05,22,14,24,15.90
2007,05,22,14,25,15.80
2007,05,22,14,26,15.70
2007,05,22,14,27,15.80
2007,05,22,14,28,15.80
2007,05,22,14,29,15.70
2007,05,22,14,30,15.60
2007,05,22,14,31,15.60
2007,05,22,14,32,15.70
2007,05,22,14,33,15.80
2007,05,22,14,34,15.90
2007,05,22,14,35,15.90
2007,05,22,14,36,15.90
2007,05,22,14,37,16.00
2007,05,22,14,38,16.10
2007,05,22,14,39,16.10
2007,05,22,14,40,16.10
2007,05,22,14,41,16.10
2007,05,22,14,42,16.10
2007,05,22,14,43,16.20
2007,05,22,14,44,16.20
2007,05,22,14,45,16.30
2007,05,22,14,46,16.30
2007,05,22,14,47,16.30
2007,05,22,14,48,16.30
2007,05,22,14,49,16.30
2007,05,22,14,50,16.40
2007,05,22,14,51,16.40
2007,05,22,14,52,16.40
2007,05,22,14,53,16.40
2007,05,22,14,54,16.50
2007,05,22,14,55,16.60
2007,05,22,14,56,16.70
2007,05,22,14,57,16.80
2007,05,22,14,58,16.80
2007,05,22,14,59,16.70
2007,05,22,15,00,16.80
2007,05,22,15,01,16.80
2007,05,22,15,02,16.80
2007,05,22,15,03,16.90
2007,05,22,15,04,17.00
2007,05,22,15,05,17.00
2007,05,22,15,06,17.00
2007,05,22,15,07,17.00
2007,05,22,15,08,17.00
2007,05,22,15,09,17.10
2007,05,22,15,10,17.10
2007,05,22,15,11,17.10
2007,05,22,15,12,17.10
2007,05,22,15,13,17.10
2007,05,22,15,14,17.10
2007,05,22,15,15,17.10
2007,05,22,15,16,17.10
2007,05,22,15,17,17.10
2007,05,22,15,18,17.10
2007,05,22,15,19,17.10
2007,05,22,15,20,17.20
2007,05,22,15,21,17.20
2007,05,22,15,22,17.10
2007,05,22,15,23,17.10
2007,05,22,15,24,17.10
2007,05,22,15,25,17.10
2007,05,22,15,26,17.10
2007,05,22,15,27,17.10
2007,05,22,15,28,17.20
2007,05,22,15,29,17.30
2007,05,22,15,30,17.30
2007,05,22,15,31,17.40
2007,05,22,15,32,17.40
2007,05,22,15,33,17.40
2007,05,22,15,34,17.40
2007,05,22,15,35,17.40
2007,05,22,15,36,17.40
2007,05,22,15,37,17.30
2007,05,22,15,38,17.20
2007,05,22,15,39,17.20
2007,05,22,15,40,17.20
2007,05,22,15,41,17.20
2007,05,22,15,42,17.30
2007,05,22,15,43,17.30
2007,05,22,15,44,17.30
2007,05,22,15,45,17.40
2007,05,22,15,46,17.40
2007,05,22,15,47,17.50
2007,05,22,15,48,17.70
2007,05,22,15,49,17.80
2007,05,22,15,50,17.90
2007,05,22,15,51,18.00
2007,05,22,15,52,18.10
2007,05,22,15,53,18.20
2007,05,22,15,54,18.20
2007,05,22,15,55,18.20
2007,05,22,15,56,18.10
2007,05,22,15,57,18.10
2007,05,22,15,58,18.10
2007,05,22,15,59,18.00
2007,05,22,16,00,17.90
2007,05,22,16,01,17.80
2007,05,22,16,02,17.70
2007,05,22,16,03,17.70
2007,05,22,16,04,17.60
2007,05,22,16,05,17.70
2007,05,22,16,06,17.70
2007,05,22,16,07,17.70
2007,05,22,16,08,17.70
2007,05,22,16,09,17.70
2007,05,22,16,10,17.60
2007,05,22,16,11,17.60
2007,05,22,16,12,17.60
2007,05,22,16,13,17.60
2007,05,22,16,14,17.70
2007,05,22,16,15,17.80
2007,05,22,16,16,17.80
2007,05,22,16,17,17.90
2007,05,22,16,18,17.90
2007,05,22,16,19,17.90
2007,05,22,16,20,17.90
2007,05,22,16,21,18.00
2007,05,22,16,22,18.10
2007,05,22,16,23,18.20
2007,05,22,16,24,18.30
2007,05,22,16,25,18.20
2007,05,22,16,26,18.20
2007,05,22,16,27,18.20
2007,05,22,16,28,18.30
2007,05,22,16,29,18.20
2007,05,22,16,30,18.20
2007,05,22,16,31,18.20
2007,05,22,16,32,18.20
2007,05,22,16,33,18.10
2007,05,22,16,34,18.10
2007,05,22,16,35,18.10
2007,05,22,16,36,18.10
2007,05,22,16,37,18.20
2007,05,22,16,38,18.20
2007,05,22,16,39,18.30
2007,05,22,16,40,18.40
2007,05,22,16,41,18.40
2007,05,22,16,42,18.40
2007,05,22,16,43,18.30
2007,05,22,16,44,18.30
2007,05,22,16,45,18.20
2007,05,22,16,46,18.20
2007,05,22,16,47,18.10
2007,05,22,16,48,18.10
2007,05,22,16,49,18.10
2007,05,22,16,50,18.00
2007,05,22,16,51,17.90
2007,05,22,16,52,17.80
2007,05,22,16,53,17.80
2007,05,22,16,54,17.70
2007,05,22,16,55,17.70
2007,05,22,16,56,17.80
2007,05,22,16,57,17.80
2007,05,22,16,58,17.90
2007,05,22,16,59,17.90
2007,05,22,17,00,17.90
2007,05,22,17,01,17.90
2007,05,22,17,02,17.90
2007,05,22,17,03,17.90
2007,05,22,17,04,18.00
2007,05,22,17,05,18.10
2007,05,22,17,06,18.00
2007,05,22,17,07,18.00
2007,05,22,17,08,18.00
2007,05,22,17,09,18.10
2007,05,22,17,10,18.10
2007,05,22,17,11,18.10
2007,05,22,17,12,18.20
2007,05,22,17,13,18.20
2007,05,22,17,14,18.30
2007,05,22,17,15,18.30
2007,05,22,17,16,18.30
2007,05,22,17,17,18.20
2007,05,22,17,18,18.20
2007,05,22,17,19,18.20
2007,05,22,17,20,18.30
2007,05,22,17,21,18.50
2007,05,22,17,22,18.60
2007,05,22,17,23,18.80
2007,05,22,17,24,18.90
2007,05,22,17,25,19.10
2007,05,22,17,26,19.20
2007,05,22,17,27,19.30
2007,05,22,17,28,19.40
2007,05,22,17,29,19.50
2007,05,22,17,30,19.60
2007,05,22,17,31,19.70
2007,05,22,17,32,19.70
2007,05,22,17,33,19.70
2007,05,22,17,34,19.70
2007,05,22,17,35,19.80
2007,05,22,17,36,19.80
2007,05,22,17,37,19.80
2007,05,22,17,38,19.80